Overview Statistics Trail Chart Weather Telemetry Raw packets
 

This is the latest recevied weather packets stored in our database for station/object W4MLN-3. If no packets are shown the sender has not sent any weather packets the latest 10 day(s).

<< 86 87 88 89 90 91 92 >>
Time Temp. Humidity Pressure Rain* Wind** Luminosity Snow
1787860804 26.11° C 70% 1018 hPa 0 mm - - -
1787860503 26.11° C 70% 1018 hPa 0 mm - - -
1787860204 26.67° C 69% 1017.9 hPa 0 mm - - -
1787859904 26.67° C 68% 1017.8 hPa 0 mm - - -
1787859603 27.22° C 68% 1017.9 hPa 0 mm - - -
1787859325 26.67° C 66% 1017.8 hPa 0 mm - - -
1787859003 26.67° C 68% 1017.8 hPa 0 mm - - -
1787858703 26.67° C 70% 1018.1 hPa 0 mm - - -
1787858404 26.11° C 71% 1018.2 hPa 0 mm - - -
1787858103 25.56° C 70% 1018.2 hPa 0 mm - - -
1787857804 25.56° C 72% 1018.2 hPa 0 mm - - -
1787857503 25° C 72% 1018.1 hPa 0 mm - - -
1787857203 25° C 74% 1018.2 hPa 0 mm - - -
1787856903 25° C 75% 1018.3 hPa 0 mm - - -
1787856603 25° C 74% 1018.3 hPa 0 mm - - -
1787856303 25.56° C 73% 1018.4 hPa 0 mm - - -
1787856011 25.56° C 71% 1018.5 hPa 0 mm - - -
1787855704 26.11° C 71% 1018.5 hPa 0 mm - - -
1787855403 26.67° C 68% 1018.5 hPa 0 mm - - -
1787855104 27.22° C 66% 1018.6 hPa 0 mm - - -
1787854805 27.22° C 61% 1018.7 hPa 0 mm - - -
1787854504 27.78° C 59% 1018.8 hPa 0 mm - - -
1787854203 27.78° C 59% 1018.8 hPa 0 mm - - -
1787853945 27.22° C 60% 1018.8 hPa 0 mm - - -
1787853603 27.22° C 61% 1018.8 hPa 0 mm - - -

* Rain latest hour (hover to see other rain measurements)
** Current wind speed in m/s (hover to see current wind gust speed)